N4DWK Weather Reports


Display with metric or nautical units.
time (UTC)temp
F
wind
direction
speed
MPH
gust
MPH
rain 1hr
in
rain 24hr
in
rain mn
in
humidity
%
barometer
mb
20260508203004 74 229 4.0 6.0 0.00 0.05 0.00 37 1013.6
20260508202006 73 234 3.0 6.0 0.00 0.09 0.00 38 1013.7
20260508201505 72 236 2.0 6.0 0.00 0.10 0.00 39 1013.7
20260508201005 73 234 2.0 7.0 0.00 0.12 0.00 38 1013.7
20260508200505 72 232 3.0 7.0 0.00 0.15 0.00 39 1013.8
20260508200005 72 237 2.0 5.0 0.00 0.17 0.00 39 1013.7
20260508195505 72 278 2.0 8.0 0.00 0.27 0.00 39 1013.8
20260508195005 72 230 3.0 10.0 0.00 0.29 0.00 40 1014.0
20260508194505 72 222 4.0 10.0 0.00 0.29 0.00 39 1014.0
20260508194005 72 215 3.0 7.0 0.00 0.29 0.00 39 1014.1
20260508193506 73 221 3.0 7.0 0.00 0.29 0.00 38 1014.2
20260508193005 72 201 2.0 6.0 0.00 0.29 0.00 38 1014.3
20260508192504 72 216 2.0 8.0 0.00 0.29 0.00 40 1014.3
20260508192006 72 232 2.0 8.0 0.00 0.29 0.00 40 1014.4
20260508191004 71 282 2.0 8.0 0.00 0.29 0.00 40 1014.7
20260508190505 71 280 3.0 7.0 0.00 0.29 0.00 40 1014.9
20260508190004 72 224 3.0 7.0 0.00 0.29 0.00 42 1014.9
20260508185504 71 237 4.0 7.0 0.00 0.29 0.00 40 1015.0
20260508185005 70 230 2.0 8.0 0.00 0.29 0.00 41 1015.1
20260508184005 71 218 5.0 8.0 0.00 0.29 0.00 42 1015.1
20260508183504 70 207 0.0 8.0 0.00 0.29 0.00 43 1015.1
20260508183004 70 212 2.0 8.0 0.00 0.29 0.00 42 1015.2
20260508182504 70 232 2.0 7.0 0.00 0.29 0.00 42 1015.3
20260508182004 70 237 3.0 8.0 0.00 0.29 0.00 42 1015.3
20260508181505 69 213 3.0 8.0 0.00 0.29 0.00 41 1015.4
20260508181004 69 246 0.0 12.0 0.00 0.29 0.00 41 1015.5
20260508180504 70 245 5.0 12.0 0.00 0.29 0.00 41 1015.6
20260508180004 70 231 1.0 6.0 0.00 0.29 0.00 41 1015.6
20260508175504 69 205 2.0 6.0 0.00 0.29 0.00 45 1015.6
20260508175004 69 220 3.0 6.0 0.00 0.29 0.00 42 1015.7
20260508174504 69 210 1.0 8.0 0.00 0.29 0.00 42 1015.7
20260508173504 69 228 3.0 9.0 0.00 0.29 0.00 42 1015.7
20260508173004 68 259 3.0 8.0 0.00 0.29 0.00 44 1015.8
20260508172005 69 243 3.0 7.0 0.00 0.29 0.00 42 1016.1
20260508171504 68 226 2.0 8.0 0.00 0.29 0.00 45 1016.2
20260508171004 68 226 3.0 8.0 0.00 0.29 0.00 43 1016.2
20260508170504 68 196 1.0 7.0 0.00 0.29 0.00 49 1016.3
20260508170004 66 223 2.0 7.0 0.00 0.29 0.00 45 1016.4
20260508165504 66 349 2.0 7.0 0.00 0.29 0.00 44 1016.5
20260508164504 66 235 1.0 6.0 0.00 0.29 0.00 48 1016.6
20260508164004 66 221 3.0 6.0 0.00 0.29 0.00 49 1016.7
20260508163504 65 224 2.0 9.0 0.00 0.29 0.00 48 1016.9
20260508163004 65 207 3.0 9.0 0.00 0.29 0.00 51 1016.9
20260508162504 64 282 2.0 5.0 0.00 0.29 0.00 54 1017.0
20260508161504 63 206 1.0 5.0 0.00 0.29 0.00 54 1017.1
20260508161004 63 60 2.0 6.0 0.00 0.29 0.00 53 1017.2
20260508160504 63 242 2.0 6.0 0.00 0.29 0.00 53 1017.3
20260508160004 63 234 3.0 6.0 0.00 0.29 0.00 53 1017.4
20260508155505 62 266 0.0 3.0 0.00 0.29 0.00 54 1017.4
20260508155005 62 248 1.0 3.0 0.00 0.29 0.00 52 1017.4
20260508154504 61 200 1.0 3.0 0.00 0.29 0.00 52 1017.4
20260508154006 61 205 1.0 5.0 0.00 0.29 0.00 56 1017.5
20260508153504 61 70 2.0 5.0 0.00 0.29 0.00 56 1017.5
20260508153004 61 22 1.0 3.0 0.00 0.29 0.00 57 1017.5
20260508152505 61 219 0.0 7.0 0.00 0.29 0.00 56 1017.6
20260508151504 61 208 0.0 3.0 0.00 0.29 0.00 61 1017.6
20260508151004 61 80 0.0 3.0 0.00 0.29 0.00 60 1017.6
20260508150504 61 69 0.0 7.0 0.00 0.29 0.00 60 1017.7
20260508145504 60 138 0.0 3.0 0.00 0.29 0.00 61 1017.7
20260508145005 60 132 1.0 3.0 0.00 0.29 0.00 62 1017.7
20260508144503 59 56 0.0 3.0 0.00 0.29 0.00 65 1017.7
20260508144004 59 155 0.0 3.0 0.00 0.29 0.00 64 1017.7
20260508143004 58 5 1.0 3.0 0.00 0.29 0.00 69 1017.7
20260508142504 58 59 0.0 0.0 0.00 0.29 0.00 71 1017.7
20260508142004 57 144 0.0 0.0 0.00 0.29 0.00 72 1017.7
20260508141504 57 144 0.0 3.0 0.00 0.29 0.00 70 1017.6
20260508141005 57 144 2.0 3.0 0.00 0.29 0.00 72 1017.6
20260508135505 56 121 0.0 5.0 0.00 0.29 0.00 83 1017.6
20260508135004 54 37 1.0 5.0 0.00 0.29 0.00 86 1017.7
20260508134504 53 63 0.0 3.0 0.00 0.29 0.00 87 1017.8
20260508133504 53 101 1.0 3.0 0.00 0.29 0.00 93 1017.9
20260508133004 53 351 0.0 0.0 0.00 0.29 0.00 94 1017.9
20260508132504 52 351 0.0 0.0 0.00 0.29 0.00 94 1017.9
20260508132004 53 351 0.0 0.0 0.00 0.29 0.00 94 1017.8
20260508131504 53 351 0.0 3.0 0.00 0.29 0.00 93 1017.8
20260508131005 53 351 1.0 3.0 0.00 0.29 0.00 92 1017.8
20260508130504 52 351 1.0 3.0 0.00 0.29 0.00 92 1017.8
20260508130004 52 346 2.0 3.0 0.00 0.29 0.00 92 1017.8
20260508125004 51 345 0.0 0.0 0.00 0.29 0.00 92 1017.8
20260508124503 51 345 0.0 2.0 0.00 0.29 0.00 92 1017.7
20260508124004 51 341 0.0 3.0 0.00 0.29 0.00 92 1017.7
20260508123503 50 178 1.0 3.0 0.00 0.29 0.00 92 1017.7
20260508123004 50 185 0.0 0.0 0.00 0.29 0.00 93 1017.6
20260508122503 49 186 0.0 0.0 0.00 0.29 0.00 93 1017.6
20260508122005 49 186 0.0 0.0 0.00 0.29 0.00 92 1017.5
20260508121504 49 186 0.0 0.0 0.00 0.29 0.00 93 1017.5
20260508121004 48 186 0.0 0.0 0.00 0.29 0.00 93 1017.4
20260508120504 48 186 0.0 0.0 0.00 0.29 0.00 93 1017.2
20260508120004 48 186 0.0 0.0 0.00 0.29 0.00 93 1017.1
20260508115504 48 186 0.0 0.0 0.00 0.29 0.00 93 1017.1
20260508115004 47 186 0.0 0.0 0.00 0.29 0.00 93 1017.0
20260508114504 47 186 0.0 0.0 0.00 0.29 0.00 93 1016.9
20260508114004 47 186 0.0 0.0 0.00 0.29 0.00 93 1016.9
20260508113006 46 186 0.0 0.0 0.00 0.29 0.00 93 1016.8
20260508112507 45 186 0.0 0.0 0.00 0.29 0.00 93 1016.7
20260508112006 45 186 0.0 0.0 0.00 0.29 0.00 93 1016.6
20260508111506 45 186 0.0 0.0 0.00 0.29 0.00 93 1016.6
20260508111006 44 186 0.0 0.0 0.00 0.29 0.00 93 1016.4
20260508110506 44 186 0.0 0.0 0.00 0.29 0.00 93 1016.3
20260508105506 44 186 0.0 0.0 0.00 0.29 0.00 93 1016.2
20260508105006 44 186 0.0 0.0 0.00 0.29 0.00 93 1016.1
20260508104507 44 186 0.0 0.0 0.00 0.29 0.00 93 1016.0
20260508104006 44 186 0.0 0.0 0.00 0.29 0.00 93 1016.0
20260508103506 44 186 0.0 0.0 0.00 0.29 0.00 93 1015.8
20260508103006 44 186 0.0 0.0 0.00 0.29 0.00 93 1015.8
20260508102506 44 186 0.0 0.0 0.00 0.29 0.00 93 1015.8
20260508101506 45 186 0.0 0.0 0.00 0.29 0.00 93 1015.8
20260508101006 45 186 0.0 0.0 0.00 0.29 0.00 93 1015.7
20260508100506 45 186 0.0 0.0 0.00 0.29 0.00 93 1015.6
20260508100006 45 186 0.0 0.0 0.00 0.29 0.00 93 1015.5
20260508095506 45 186 0.0 0.0 0.00 0.29 0.00 93 1015.5
20260508095007 46 186 0.0 0.0 0.00 0.29 0.00 93 1015.4
20260508094006 46 186 0.0 0.0 0.00 0.29 0.00 93 1015.3
20260508093006 46 186 0.0 0.0 0.00 0.29 0.00 93 1015.2
20260508092506 46 186 0.0 0.0 0.00 0.29 0.00 93 1015.1
20260508092006 46 186 0.0 0.0 0.00 0.32 0.00 93 1015.1
20260508091006 46 146 0.0 0.0 0.00 0.33 0.00 93 1014.9
20260508090507 45 137 0.0 0.0 0.00 0.33 0.00 93 1014.9
20260508090006 45 137 0.0 0.0 0.00 0.33 0.00 93 1014.9
20260508085507 45 137 0.0 0.0 0.00 0.33 0.00 93 1014.8
20260508085006 45 137 0.0 0.0 0.00 0.33 0.00 94 1014.8
20260508084506 46 136 0.0 0.0 0.00 0.33 0.00 93 1014.8
20260508084006 46 136 0.0 0.0 0.00 0.33 0.00 93 1014.7
20260508083506 46 136 0.0 0.0 0.00 0.33 0.00 93 1014.7
20260508083006 46 136 0.0 0.0 0.00 0.33 0.00 93 1014.6
20260508082506 46 136 0.0 0.0 0.00 0.33 0.00 93 1014.5
20260508082006 46 136 0.0 0.0 0.00 0.33 0.00 93 1014.4
20260508081506 46 136 0.0 0.0 0.00 0.33 0.00 93 1014.3
20260508081006 46 136 0.0 0.0 0.00 0.33 0.00 94 1014.2
20260508080507 46 136 0.0 0.0 0.00 0.33 0.00 94 1014.3
20260508080006 46 136 0.0 0.0 0.00 0.33 0.00 93 1014.2
20260508075506 46 136 0.0 0.0 0.00 0.33 0.00 93 1014.3
20260508075006 46 136 0.0 0.0 0.00 0.33 0.00 93 1014.2
20260508074506 46 136 0.0 0.0 0.00 0.33 0.00 93 1014.2
20260508074006 46 136 0.0 0.0 0.00 0.33 0.00 93 1014.1
20260508073505 46 136 0.0 0.0 0.00 0.33 0.00 93 1014.2
20260508073006 46 136 0.0 0.0 0.00 0.33 0.00 94 1014.1
20260508072506 47 136 0.0 0.0 0.00 0.33 0.00 94 1014.1
20260508072006 47 136 0.0 0.0 0.00 0.33 0.00 94 1014.0
20260508071506 47 136 0.0 0.0 0.00 0.33 0.00 94 1014.0
20260508071005 47 136 0.0 0.0 0.00 0.33 0.00 93 1013.9
20260508070505 47 136 0.0 0.0 0.00 0.33 0.00 93 1013.8
20260508070006 47 136 0.0 0.0 0.00 0.33 0.00 93 1013.8
20260508065505 47 136 0.0 0.0 0.00 0.33 0.00 93 1013.8
20260508065005 47 136 0.0 0.0 0.00 0.33 0.00 94 1013.8
20260508064005 47 136 0.0 0.0 0.00 0.33 0.00 94 1013.8
20260508063505 47 136 0.0 0.0 0.00 0.33 0.00 94 1013.7
20260508063007 47 136 0.0 0.0 0.00 0.33 0.00 93 1013.7
20260508062506 48 136 0.0 0.0 0.00 0.33 0.00 93 1013.6
20260508062006 48 136 0.0 0.0 0.00 0.33 0.00 93 1013.6
20260508061506 48 136 0.0 0.0 0.00 0.33 0.00 93 1013.5
20260508061006 48 136 0.0 0.0 0.00 0.33 0.00 94 1013.5
20260508060505 48 136 0.0 0.0 0.00 0.33 0.00 94 1013.4
20260508060006 48 136 0.0 0.0 0.00 0.33 0.00 94 1013.4
20260508055508 48 136 0.0 0.0 0.00 0.33 0.00 93 1013.3
20260508055005 48 136 0.0 0.0 0.00 0.33 0.00 93 1013.3
20260508054507 48 136 0.0 0.0 0.00 0.33 0.00 93 1013.2
20260508054007 48 136 0.0 0.0 0.00 0.33 0.00 93 1013.2
20260508053506 48 136 0.0 0.0 0.00 0.33 0.00 93 1013.1
20260508052506 48 136 0.0 0.0 0.00 0.33 0.00 94 1013.2
20260508052005 48 136 0.0 0.0 0.00 0.33 0.00 94 1013.2
20260508051505 48 136 0.0 0.0 0.00 0.33 0.00 94 1013.2
20260508051005 49 136 0.0 0.0 0.00 0.33 0.00 94 1013.1
20260508050506 49 136 0.0 0.0 0.00 0.33 0.00 93 1013.2
20260508050006 49 136 0.0 0.0 0.00 0.33 0.00 93 1013.1
20260508045505 49 136 0.0 0.0 0.00 0.33 0.00 93 1013.1
20260508045006 49 136 0.0 0.0 0.00 0.33 0.00 94 1013.0
20260508044506 49 136 0.0 0.0 0.00 0.33 0.00 94 1013.0
20260508044006 49 136 0.0 0.0 0.00 0.33 0.00 94 1012.9
20260508043505 49 136 0.0 0.0 0.00 0.33 0.00 93 1012.9
20260508043006 49 136 0.0 0.0 0.00 0.33 0.00 93 1012.8
20260508042506 49 136 0.0 0.0 0.00 0.33 0.00 93 1012.9
20260508042007 49 136 0.0 0.0 0.00 0.33 0.00 94 1012.9
20260508041506 50 136 0.0 0.0 0.00 0.33 0.00 94 1012.9
20260508041005 50 136 0.0 0.0 0.00 0.33 0.00 93 1012.8
20260508040506 50 136 0.0 0.0 0.00 0.33 0.00 93 1012.8
20260508040006 50 136 0.0 0.0 0.00 0.33 0.00 93 1012.7
20260508035505 50 136 0.0 0.0 0.00 0.33 0.33 94 1012.7
20260508035006 50 136 0.0 0.0 0.00 0.33 0.33 94 1012.6
20260508034506 50 136 0.0 0.0 0.00 0.33 0.33 93 1012.7
20260508034006 50 136 0.0 0.0 0.00 0.33 0.33 93 1012.6
20260508033505 50 136 0.0 0.0 0.00 0.33 0.33 93 1012.6
20260508033006 50 136 0.0 0.0 0.00 0.33 0.33 94 1012.5
20260508032507 50 136 0.0 0.0 0.00 0.33 0.33 94 1012.5
20260508032006 50 136 0.0 0.0 0.00 0.33 0.33 93 1012.6
20260508031506 50 136 0.0 0.0 0.00 0.33 0.33 93 1012.6
20260508031006 50 136 0.0 0.0 0.00 0.33 0.33 93 1012.6
20260508030505 50 136 0.0 0.0 0.00 0.33 0.33 93 1012.6
20260508030005 50 136 0.0 0.0 0.00 0.33 0.33 93 1012.5
20260508025505 50 136 0.0 0.0 0.00 0.33 0.33 93 1012.4
20260508025005 50 136 0.0 0.0 0.00 0.33 0.33 93 1012.3
20260508024505 50 136 0.0 0.0 0.00 0.33 0.33 93 1012.3
20260508024007 50 136 0.0 0.0 0.00 0.33 0.33 93 1012.3
20260508023505 50 136 0.0 0.0 0.00 0.33 0.33 93 1012.3
20260508023007 50 136 0.0 0.0 0.00 0.33 0.33 93 1012.2
20260508022506 50 136 0.0 0.0 0.00 0.33 0.33 93 1012.3
20260508022005 50 136 0.0 0.0 0.00 0.33 0.33 93 1012.3
20260508021505 50 136 0.0 0.0 0.00 0.33 0.33 93 1012.3
20260508021006 50 136 0.0 0.0 0.00 0.33 0.33 93 1012.3
20260508020505 50 136 0.0 0.0 0.00 0.33 0.33 93 1012.2
20260508020005 50 136 0.0 0.0 0.00 0.33 0.33 93 1012.2
20260508015506 50 136 0.0 0.0 0.00 0.33 0.33 93 1012.1
20260508015005 50 136 0.0 0.0 0.00 0.33 0.33 93 1011.8
20260508014505 50 136 0.0 0.0 0.00 0.33 0.33 93 1011.8
20260508014007 51 136 0.0 0.0 0.00 0.33 0.33 93 1011.8
20260508013506 51 136 0.0 0.0 0.00 0.33 0.33 93 1011.9
20260508013005 51 136 0.0 0.0 0.00 0.33 0.33 93 1012.0
20260508012505 51 136 0.0 0.0 0.00 0.33 0.33 93 1012.0
20260508012005 51 136 0.0 0.0 0.00 0.33 0.33 93 1011.9
20260508011505 51 136 0.0 0.0 0.00 0.33 0.33 93 1011.9
20260508011005 51 136 0.0 0.0 0.00 0.33 0.33 93 1012.0
20260508010506 52 136 0.0 0.0 0.00 0.33 0.33 93 1012.0
20260508010005 52 136 0.0 0.0 0.00 0.33 0.33 93 1011.9
20260508005505 52 136 0.0 0.0 0.00 0.33 0.33 93 1011.9
20260508005006 52 136 0.0 0.0 0.00 0.33 0.33 93 1011.8
20260508004505 52 136 0.0 0.0 0.00 0.33 0.33 93 1011.8
20260508004006 52 136 0.0 0.0 0.00 0.33 0.33 93 1011.8
20260508003505 52 136 0.0 0.0 0.00 0.33 0.33 93 1011.6
20260508003006 53 136 0.0 0.0 0.00 0.33 0.33 93 1011.6
20260508002505 53 136 0.0 0.0 0.00 0.33 0.33 93 1011.6
20260508002005 53 136 0.0 0.0 0.00 0.33 0.33 93 1011.6
20260508001505 53 136 0.0 0.0 0.00 0.33 0.33 93 1011.5
20260508001006 53 136 0.0 0.0 0.00 0.33 0.33 93 1011.3
20260508000505 53 136 0.0 0.0 0.00 0.33 0.33 93 1011.1
20260508000005 53 136 0.0 0.0 0.00 0.33 0.33 93 1011.1
20260507235506 53 136 0.0 0.0 0.00 0.33 0.33 93 1011.1
20260507235005 53 136 0.0 0.0 0.00 0.33 0.33 93 1011.0
20260507234505 53 136 0.0 0.0 0.00 0.33 0.33 93 1010.9
20260507234005 53 136 0.0 0.0 0.00 0.33 0.33 93 1010.8
20260507233505 53 136 0.0 0.0 0.00 0.33 0.33 93 1010.7
20260507233006 53 136 0.0 0.0 0.00 0.33 0.33 92 1010.8
20260507232505 53 136 0.0 0.0 0.00 0.33 0.33 92 1010.8
20260507232005 53 136 0.0 0.0 0.00 0.33 0.33 92 1010.7
20260507231505 53 136 0.0 0.0 0.00 0.33 0.33 92 1010.6
20260507231005 53 136 0.0 0.0 0.00 0.33 0.33 92 1010.6
20260507230505 53 136 0.0 0.0 0.00 0.33 0.33 92 1010.4
20260507230005 53 136 0.0 0.0 0.00 0.33 0.33 92 1010.4
20260507225505 53 136 0.0 0.0 0.00 0.33 0.33 92 1010.5
20260507225005 53 136 0.0 0.0 0.00 0.33 0.33 92 1010.5
20260507224505 53 136 0.0 0.0 0.00 0.33 0.33 92 1010.6
20260507224005 53 136 0.0 0.0 0.00 0.33 0.33 92 1010.4
20260507223505 53 136 0.0 0.0 0.00 0.33 0.33 92 1010.6
20260507223006 53 136 0.0 0.0 0.00 0.33 0.33 92 1010.6
20260507222505 53 136 0.0 0.0 0.00 0.33 0.33 94 1010.6
20260507222005 53 136 0.0 0.0 0.00 0.33 0.33 93 1010.5
20260507221505 54 136 0.0 0.0 0.00 0.33 0.33 93 1010.6
20260507221006 54 136 0.0 0.0 0.00 0.33 0.33 93 1010.6
20260507220504 53 134 0.0 1.0 0.00 0.33 0.33 93 1010.3
20260507220005 53 134 0.0 3.0 0.00 0.33 0.33 93 1010.3
20260507215505 53 134 1.0 3.0 0.00 0.33 0.33 95 1010.2
20260507215005 53 134 0.0 3.0 0.01 0.33 0.33 93 1010.4
20260507214505 53 134 0.0 0.0 0.01 0.33 0.33 93 1010.4
20260507214006 53 134 0.0 0.0 0.02 0.33 0.33 92 1010.5
20260507213505 53 134 0.0 3.0 0.04 0.33 0.33 92 1010.4
20260507213005 53 134 1.0 3.0 0.05 0.33 0.33 92 1010.3
20260507212505 53 134 0.0 3.0 0.07 0.33 0.33 92 1010.2
20260507212005 53 133 1.0 3.0 0.09 0.33 0.33 92 1010.2
20260507211506 53 134 0.0 3.0 0.10 0.33 0.33 92 1010.2
20260507211005 53 134 1.0 3.0 0.12 0.33 0.33 92 1010.3
20260507210505 53 135 1.0 5.0 0.15 0.33 0.33 91 1010.2
20260507210005 53 123 2.0 5.0 0.17 0.33 0.33 91 1010.1
20260507205504 53 122 1.0 5.0 0.27 0.33 0.33 91 1010.4
20260507205005 54 157 0.0 0.0 0.28 0.32 0.32 91 1010.5
20260507204506 54 163 0.0 0.0 0.28 0.32 0.32 91 1010.6
20260507204005 54 163 0.0 0.0 0.27 0.31 0.31 91 1010.9
20260507203505 54 163 0.0 0.0 0.25 0.29 0.29 90 1010.8